�������l�o���
Date,Time,MP-1(��Sv/h),MP-2(��Sv/h),MP-3(��Sv/h),MP-4(��Sv/h),MP-5(��Sv/h),MP-6(��Sv/h),MP-7(��Sv/h),MP-8(��Sv/h),����,����(m/s),���J
2017/07/12,00:00,1.013,1.621,1.078,1.917,1.344,0.536,0.979,0.900,��,6.5,��
2017/07/12,00:10,1.014,1.621,1.081,1.919,1.347,0.535,0.980,0.900,��,6.5,��
2017/07/12,00:20,1.011,1.623,1.081,1.922,1.347,0.534,0.981,0.900,��,6.4,��
2017/07/12,00:30,1.013,1.623,1.082,1.916,1.346,0.538,0.979,0.901,��,6.2,��
2017/07/12,00:40,1.015,1.621,1.082,1.920,1.347,0.536,0.981,0.899,��,5.8,��
2017/07/12,00:50,1.013,1.622,1.079,1.919,1.347,0.536,0.981,0.900,��,6.7,��
2017/07/12,01:00,1.015,1.623,1.079,1.918,1.346,0.535,0.981,0.901,��,7.9,��
2017/07/12,01:10,1.014,1.619,1.079,1.919,1.345,0.536,0.980,0.901,��,8.3,��
2017/07/12,01:20,1.013,1.620,1.079,1.918,1.347,0.537,0.982,0.899,��,7.1,��
2017/07/12,01:30,1.013,1.620,1.079,1.918,1.342,0.535,0.982,0.901,��,6.1,��
2017/07/12,01:40,1.012,1.623,1.079,1.919,1.348,0.537,0.979,0.899,��,6.9,��
2017/07/12,01:50,1.012,1.624,1.080,1.919,1.347,0.537,0.979,0.899,��,6.6,��
2017/07/12,02:00,1.013,1.621,1.079,1.921,1.347,0.536,0.980,0.901,��,6.5,��
2017/07/12,02:10,1.015,1.622,1.079,1.918,1.346,0.536,0.980,0.899,��,5.9,��
2017/07/12,02:20,1.014,1.622,1.081,1.917,1.345,0.536,0.980,0.901,��쐼,5.6,��
2017/07/12,02:30,1.014,1.620,1.080,1.915,1.345,0.535,0.980,0.900,��쐼,5.7,��
2017/07/12,02:40,1.014,1.623,1.078,1.917,1.347,0.537,0.980,0.901,��쐼,5.3,��
2017/07/12,02:50,1.015,1.620,1.080,1.918,1.345,0.535,0.979,0.902,��쐼,5.6,��
2017/07/12,03:00,1.012,1.619,1.079,1.918,1.343,0.538,0.979,0.899,��쐼,4.9,��
2017/07/12,03:10,1.014,1.622,1.079,1.917,1.347,0.537,0.980,0.902,��쐼,4.7,��
2017/07/12,03:20,1.013,1.621,1.077,1.917,1.346,0.537,0.981,0.900,��쐼,4.5,��
2017/07/12,03:30,1.013,1.621,1.080,1.921,1.347,0.537,0.980,0.901,��쐼,4.8,��
2017/07/12,03:40,1.012,1.623,1.080,1.918,1.344,0.537,0.980,0.899,��쐼,4.4,��
2017/07/12,03:50,1.013,1.622,1.077,1.920,1.345,0.534,0.980,0.899,��,5.0,��
2017/07/12,04:00,1.014,1.620,1.078,1.918,1.347,0.537,0.979,0.900,��쐼,4.7,��
2017/07/12,04:10,1.015,1.621,1.078,1.921,1.343,0.535,0.981,0.900,��쐼,4.7,��
2017/07/12,04:20,1.016,1.623,1.081,1.918,1.347,0.537,0.979,0.900,��쐼,4.8,��
2017/07/12,04:30,1.015,1.621,1.078,1.920,1.343,0.536,0.980,0.899,��,5.2,��
2017/07/12,04:40,1.016,1.623,1.080,1.921,1.344,0.537,0.980,0.900,��,4.5,��
2017/07/12,04:50,1.014,1.622,1.080,1.918,1.343,0.536,0.980,0.902,��,5.0,��
2017/07/12,05:00,1.012,1.622,1.077,1.915,1.344,0.538,0.979,0.901,��쐼,4.7,��
2017/07/12,05:10,1.012,1.621,1.079,1.918,1.345,0.536,0.979,0.900,��쐼,3.4,��
2017/07/12,05:20,1.015,1.622,1.079,1.921,1.345,0.537,0.979,0.901,��쐼,3.0,��
2017/07/12,05:30,1.015,1.625,1.080,1.918,1.344,0.535,0.980,0.900,��쐼,2.5,��
2017/07/12,05:40,1.014,1.624,1.078,1.919,1.343,0.538,0.979,0.900,��,1.7,��
2017/07/12,05:50,1.012,1.623,1.080,1.918,1.346,0.537,0.980,0.902,��,1.5,��
2017/07/12,06:00,1.012,1.621,1.080,1.918,1.345,0.537,0.980,0.902,��,0.9,��
2017/07/12,06:10,1.014,1.622,1.081,1.920,1.344,0.538,0.980,0.900,��,0.9,��
2017/07/12,06:20,1.015,1.626,1.081,1.920,1.346,0.537,0.980,0.900,�쐼,0.9,��
2017/07/12,06:30,1.015,1.623,1.079,1.921,1.346,0.537,0.979,0.902,�k�k��,0.9,��
2017/07/12,06:40,1.017,1.624,1.079,1.918,1.346,0.537,0.981,0.900,�k,0.9,��
2017/07/12,06:50,1.012,1.621,1.083,1.921,1.347,0.536,0.980,0.901,�k,0.9,��
2017/07/12,07:00,1.015,1.621,1.081,1.919,1.346,0.538,0.982,0.901,�k�k��,1.2,��
2017/07/12,07:10,1.016,1.621,1.081,1.923,1.345,0.538,0.980,0.901,-,CALM,��
2017/07/12,07:20,1.014,1.624,1.081,1.917,1.344,0.537,0.982,0.900,-,CALM,��
2017/07/12,07:30,1.013,1.622,1.083,1.921,1.345,0.540,0.981,0.900,��쓌,1.2,��
2017/07/12,07:40,1.017,1.625,1.080,1.922,1.348,0.537,0.980,0.902,��,1.5,��
2017/07/12,07:50,1.017,1.625,1.083,1.921,1.347,0.536,0.981,0.901,��,1.7,��
2017/07/12,08:00,1.017,1.623,1.082,1.920,1.348,0.540,0.985,0.902,��쐼,1.7,��
2017/07/12,08:10,1.016,1.623,1.084,1.922,1.344,0.539,0.981,0.904,��,1.4,��
2017/07/12,08:20,1.016,1.620,1.081,1.925,1.344,0.539,0.981,0.901,��,1.7,��
2017/07/12,08:30,1.016,1.622,1.082,1.921,1.348,0.537,0.981,0.901,��쓌,1.5,��
2017/07/12,08:40,1.018,1.623,1.079,1.922,1.347,0.537,0.983,0.899,�쓌,1.2,��
2017/07/12,08:50,1.016,1.619,1.079,1.925,1.347,0.540,0.982,0.900,���쓌,1.4,��
2017/07/12,09:00,1.017,1.617,1.081,1.926,1.348,0.538,0.982,0.900,��,1.7,��
2017/07/12,09:10,1.018,1.625,1.081,1.923,1.349,0.538,0.983,0.900,�쓌,1.4,��
2017/07/12,09:20,1.018,1.622,1.081,1.925,1.349,0.538,0.984,0.898,�쓌,1.4,��
2017/07/12,09:30,1.018,1.626,1.080,1.924,1.348,0.538,0.982,0.899,���쓌,2.2,��
2017/07/12,09:40,1.019,1.622,1.081,1.922,1.351,0.537,0.980,0.901,�쓌,2.5,��
2017/07/12,09:50,1.018,1.622,1.079,1.924,1.352,0.540,0.983,0.899,���쓌,1.7,��
2017/07/12,10:00,1.021,1.625,1.080,1.928,1.354,0.539,0.978,0.900,�쓌,2.6,��
2017/07/12,10:10,1.019,1.624,1.083,1.923,1.352,0.537,0.979,0.900,���쓌,2.3,��
2017/07/12,10:20,1.017,1.627,1.082,1.926,1.351,0.538,0.980,0.901,���쓌,3.3,��
2017/07/12,10:30,1.018,1.628,1.081,1.925,1.354,0.539,0.980,0.901,�쓌,4.1,��
2017/07/12,10:40,1.017,1.630,1.082,1.926,1.357,0.536,0.982,0.901,�쓌,3.6,��
2017/07/12,10:50,1.021,1.631,1.083,1.925,1.355,0.538,0.983,0.900,�쓌,3.7,��
2017/07/12,11:00,1.018,1.628,1.084,1.927,1.358,0.538,0.980,0.901,�쓌,4.4,��
2017/07/12,11:10,1.020,1.628,1.082,1.924,1.355,0.538,0.982,0.900,��쓌,4.7,��
2017/07/12,11:20,1.019,1.628,1.082,1.922,1.358,0.538,0.983,0.900,��쓌,4.3,��
2017/07/12,11:30,1.020,1.630,1.084,1.925,1.357,0.539,0.983,0.900,�쓌,3.2,��
2017/07/12,11:40,1.020,1.631,1.082,1.926,1.355,0.539,0.984,0.901,�쓌,3.4,��
2017/07/12,11:50,1.021,1.630,1.083,1.928,1.358,0.540,0.983,0.900,�쓌,4.2,��
2017/07/12,12:00,1.018,1.628,1.082,1.926,1.356,0.537,0.983,0.901,�쓌,4.2,��
2017/07/12,12:10,1.019,1.631,1.083,1.922,1.355,0.537,0.981,0.900,�쓌,5.1,��
2017/07/12,12:20,1.019,1.630,1.083,1.924,1.357,0.540,0.982,0.901,��쓌,3.5,��
2017/07/12,12:30,1.021,1.631,1.086,1.925,1.359,0.539,0.982,0.901,�쓌,3.6,��
2017/07/12,12:40,1.021,1.635,1.085,1.928,1.356,0.538,0.983,0.901,��쓌,1.2,��
2017/07/12,12:50,1.020,1.633,1.085,1.930,1.360,0.537,0.984,0.902,�쓌,2.0,��
2017/07/12,13:00,1.021,1.635,1.086,1.928,1.358,0.537,0.983,0.902,�쓌,2.6,��
2017/07/12,13:10,1.019,1.632,1.086,1.927,1.359,0.539,0.983,0.901,���쓌,2.5,��
2017/07/12,13:20,1.021,1.635,1.084,1.927,1.359,0.539,0.983,0.900,���쓌,3.2,��
2017/07/12,13:30,1.021,1.627,1.084,1.927,1.359,0.538,0.985,0.903,���쓌,3.0,��
2017/07/12,13:40,1.021,1.631,1.085,1.928,1.359,0.538,0.983,0.901,�쓌,3.4,��
2017/07/12,13:50,1.021,1.632,1.085,1.929,1.359,0.538,0.982,0.901,�쓌,3.8,��
2017/07/12,14:00,1.021,1.633,1.087,1.930,1.362,0.539,0.982,0.903,��쓌,3.9,��
2017/07/12,14:10,1.021,1.630,1.086,1.929,1.359,0.538,0.985,0.900,�쓌,5.1,��
2017/07/12,14:20,1.021,1.628,1.088,1.930,1.361,0.539,0.985,0.902,��쓌,5.3,��
2017/07/12,14:30,1.022,1.632,1.089,1.930,1.361,0.538,0.986,0.904,��쓌,4.9,��
2017/07/12,14:40,1.020,1.635,1.089,1.931,1.361,0.540,0.987,0.902,��쓌,4.8,��
2017/07/12,14:50,1.022,1.631,1.088,1.931,1.359,0.539,0.985,0.902,��쓌,5.7,��
2017/07/12,15:00,1.024,1.644,1.090,1.932,1.363,0.539,0.987,0.903,��쓌,4.8,��
2017/07/12,15:10,1.023,1.637,1.090,1.932,1.363,0.538,0.986,0.900,��쓌,5.5,��
2017/07/12,15:20,1.023,1.631,1.089,1.936,1.362,0.541,0.986,0.903,��쓌,5.0,��
2017/07/12,15:30,1.026,1.634,1.088,1.936,1.362,0.539,0.986,0.902,��쓌,4.8,��
2017/07/12,15:40,1.022,1.636,1.090,1.937,1.362,0.538,0.987,0.900,��쓌,5.4,��
2017/07/12,15:50,1.024,1.632,1.089,1.935,1.362,0.538,0.986,0.903,��쓌,4.3,��
2017/07/12,16:00,1.025,1.634,1.088,1.937,1.360,0.540,0.987,0.903,��쓌,4.8,��
2017/07/12,16:10,1.026,1.631,1.088,1.933,1.360,0.535,0.986,0.900,��,6.0,��
2017/07/12,16:20,1.028,1.632,1.086,1.934,1.361,0.538,0.985,0.902,��,6.5,��
2017/07/12,16:30,1.026,1.633,1.089,1.936,1.360,0.536,0.984,0.901,��,5.4,��
2017/07/12,16:40,1.025,1.633,1.086,1.933,1.359,0.538,0.985,0.904,��,5.5,��
2017/07/12,16:50,1.024,1.632,1.086,1.937,1.361,0.536,0.986,0.903,��,4.6,��
2017/07/12,17:00,1.024,1.632,1.089,1.936,1.358,0.537,0.986,0.903,��,6.1,��
2017/07/12,17:10,1.025,1.635,1.086,1.934,1.361,0.537,0.987,0.902,��,5.7,�L
2017/07/12,17:20,1.022,1.633,1.088,1.934,1.360,0.536,0.985,0.902,��,5.3,�L
2017/07/12,17:30,1.025,1.635,1.089,1.936,1.362,0.537,0.984,0.901,��,5.7,��
2017/07/12,17:40,1.024,1.633,1.088,1.932,1.360,0.537,0.985,0.902,��,6.1,��
2017/07/12,17:50,1.024,1.634,1.089,1.934,1.360,0.537,0.983,0.901,��,5.5,��
2017/07/12,18:00,1.023,1.635,1.088,1.935,1.358,0.536,0.984,0.902,��,5.0,�L
2017/07/12,18:10,1.024,1.631,1.088,1.934,1.359,0.538,0.983,0.902,��,4.5,�L
2017/07/12,18:20,1.021,1.633,1.086,1.935,1.359,0.536,0.985,0.902,��,6.1,��
2017/07/12,18:30,1.021,1.633,1.087,1.933,1.359,0.536,0.983,0.900,��쐼,6.0,�L
2017/07/12,18:40,1.023,1.630,1.085,1.930,1.355,0.538,0.983,0.903,��쐼,5.6,�L
2017/07/12,18:50,1.022,1.632,1.085,1.933,1.357,0.538,0.984,0.901,��,6.0,��
2017/07/12,19:00,1.024,1.629,1.086,1.932,1.357,0.537,0.984,0.901,��,6.5,��
2017/07/12,19:10,1.024,1.629,1.087,1.931,1.357,0.536,0.982,0.902,��쐼,6.9,��
2017/07/12,19:20,1.024,1.628,1.085,1.932,1.357,0.539,0.983,0.903,��,6.9,��
2017/07/12,19:30,1.024,1.630,1.085,1.933,1.357,0.538,0.985,0.901,��,6.3,��
2017/07/12,19:40,1.023,1.629,1.085,1.932,1.357,0.537,0.984,0.903,��쐼,6.4,��
2017/07/12,19:50,1.024,1.634,1.087,1.933,1.357,0.537,0.985,0.903,��쐼,5.7,��
2017/07/12,20:00,1.022,1.632,1.086,1.932,1.357,0.537,0.983,0.901,��쐼,4.1,��
2017/07/12,20:10,1.024,1.632,1.087,1.931,1.358,0.537,0.983,0.902,��쐼,4.1,��
2017/07/12,20:20,1.023,1.630,1.087,1.929,1.359,0.537,0.983,0.902,�쐼,3.9,��
2017/07/12,20:30,1.026,1.632,1.085,1.934,1.355,0.539,0.986,0.900,�쐼,4.5,�L
2017/07/12,20:40,1.023,1.632,1.090,1.933,1.355,0.538,0.983,0.903,�쐼,5.9,�L
2017/07/12,20:50,1.025,1.631,1.086,1.928,1.358,0.540,0.985,0.902,�쐼,6.2,�L
2017/07/12,21:00,1.026,1.631,1.089,1.933,1.360,0.538,0.985,0.903,�쐼,4.6,�L
2017/07/12,21:10,1.024,1.630,1.088,1.933,1.357,0.538,0.985,0.904,�쐼,4.7,�L
2017/07/12,21:20,1.025,1.633,1.087,1.935,1.359,0.538,0.985,0.902,�쐼,3.8,�L
2017/07/12,21:30,1.024,1.634,1.088,1.935,1.359,0.538,0.983,0.901,�쐼,4.4,��
2017/07/12,21:40,1.021,1.629,1.087,1.931,1.359,0.538,0.984,0.902,���쐼,2.0,��
2017/07/12,21:50,1.025,1.631,1.088,1.930,1.357,0.538,0.984,0.902,���쐼,1.7,��
2017/07/12,22:00,1.022,1.631,1.088,1.932,1.359,0.539,0.984,0.901,��,2.2,��
2017/07/12,22:10,1.025,1.630,1.087,1.932,1.359,0.538,0.986,0.901,���쐼,1.7,��
2017/07/12,22:20,1.024,1.631,1.087,1.933,1.359,0.537,0.984,0.900,���쐼,1.4,��
2017/07/12,22:30,1.024,1.628,1.088,1.936,1.359,0.538,0.985,0.903,���k��,0.6,��
2017/07/12,22:40,1.022,1.630,1.086,1.933,1.357,0.537,0.984,0.900,-,CALM,��
2017/07/12,22:50,1.019,1.633,1.088,1.932,1.357,0.539,0.984,0.899,��,1.1,��
2017/07/12,23:00,1.020,1.629,1.085,1.933,1.357,0.538,0.983,0.902,��쓌,2.6,��
2017/07/12,23:10,1.021,1.629,1.085,1.932,1.356,0.537,0.983,0.901,��쓌,3.4,��
2017/07/12,23:20,1.021,1.630,1.085,1.932,1.356,0.538,0.982,0.902,��쓌,3.3,��
2017/07/12,23:30,1.018,1.630,1.086,1.932,1.357,0.539,0.984,0.902,��쓌,3.2,�L
2017/07/12,23:40,1.018,1.627,1.084,1.931,1.357,0.538,0.984,0.901,��쓌,3.3,�L
2017/07/12,23:50,1.021,1.626,1.086,1.933,1.357,0.538,0.983,0.903,��쓌,3.3,��
